Kiama Observation History
Time Wind Speed Temp Pressure Rel. Hum Rain
14/10:30am W 15-23 kts 16.5°c n/a 39% 0.0mm
14/10:00am W 16-24 kts 16.1°c n/a 40% 0.0mm
14/09:30am W 15-21 kts 15.6°c n/a 41% 0.0mm
14/09:10am W 15-25 kts 15.4°c n/a 43% 0.0mm
14/09:00am W 17-26 kts 15.3°c n/a 43% 0.0mm
14/08:30am W 15-25 kts 15.0°c n/a 45% 0.0mm
14/08:00am W 15-20 kts 14.7°c n/a 46% 0.0mm
14/07:30am W 14-22 kts 14.4°c n/a 47% 0.0mm
14/07:00am W 14-19 kts 14.4°c n/a 47% 0.0mm
14/06:30am W 12-19 kts 14.6°c n/a 49% 0.0mm
14/06:00am W 10-14 kts 14.8°c n/a 47% 0.0mm
14/05:30am WNW 8-12 kts 14.7°c n/a 50% 0.0mm
14/05:00am WSW 4-13 kts 15.2°c n/a 51% 0.0mm
14/04:30am W 8-15 kts 15.1°c n/a 54% 0.0mm
14/04:00am W 11-20 kts 15.8°c n/a 52% 0.0mm
14/03:30am WSW 7-11 kts 15.8°c n/a 51% 0.0mm
14/03:00am SW 7-10 kts 16.2°c n/a 53% 0.0mm
14/02:30am WSW 8-12 kts 16.3°c n/a 51% 0.0mm
14/02:00am WSW 9-14 kts 16.5°c n/a 51% 0.0mm
14/01:30am SW 12-23 kts 16.9°c n/a 49% 0.0mm
14/01:00am WSW 14-21 kts 16.9°c n/a 49% 0.0mm
14/12:30am WSW 11-16 kts 16.9°c n/a 48% 0.0mm
14/12:00am SW 5-10 kts 16.7°c n/a 50% 0.0mm
Time Wind Speed Temp Pressure Rel. Hum Rain
13/11:30pm W 9-18 kts 16.9°c n/a 49% 0.0mm
13/11:00pm WNW 10-18 kts 17.1°c n/a 49% 0.0mm
13/10:30pm WNW 9-15 kts 17.2°c n/a 50% 0.0mm
13/10:00pm WNW 10-18 kts 17.3°c n/a 49% 0.0mm
13/09:30pm WNW 5-12 kts 17.5°c n/a 50% 0.0mm
13/09:00pm WNW 5-10 kts 17.6°c n/a 50% 0.0mm
13/08:30pm NW 5-11 kts 17.4°c n/a 52% 0.0mm
13/08:00pm WNW 4-6 kts 17.4°c n/a 54% 0.0mm
13/07:30pm NW 4-10 kts 17.1°c n/a 54% 0.0mm
13/07:00pm NNW 4-6 kts 16.9°c n/a 55% 0.0mm
13/06:30pm NNW 4-6 kts 17.4°c n/a 51% 0.0mm
13/06:00pm NW 5-7 kts 18.3°c n/a 48% 0.0mm
13/05:30pm NW 6-14 kts 18.6°c n/a 47% 0.0mm
13/05:00pm WNW 3-7 kts 18.4°c n/a 52% 0.0mm
13/04:30pm SW 6-11 kts 19.4°c n/a 53% 0.0mm
13/04:00pm NE 4-6 kts 19.9°c n/a 66% 0.0mm
13/03:30pm NE 3-5 kts 20.9°c n/a 62% 0.0mm
13/03:00pm ENE 2-5 kts 21.4°c n/a 54% 0.0mm
13/02:30pm NE 2-5 kts 22.3°c n/a 53% 0.0mm
13/02:00pm ENE 4-6 kts 22.1°c n/a 58% 0.0mm
13/01:30pm NE 6-7 kts 21.8°c n/a 56% 0.0mm
13/01:00pm NE 5-6 kts 21.4°c n/a 60% 0.0mm
13/12:30pm NNE 3-7 kts 22.9°c n/a 56% 0.0mm
13/12:00pm WSW 6-9 kts 21.7°c n/a 52% 0.0mm
13/11:30am W 6-11 kts 21.5°c n/a 52% 0.0mm
13/11:00am SE 2-3 kts 20.6°c n/a 59% 0.0mm
13/10:30am ESE 3-5 kts 20.5°c n/a 66% 0.0mm
13/10:00am W 3-7 kts 20.2°c n/a 62% 0.0mm
13/09:30am W 2-3 kts 19.4°c n/a 65% 0.0mm
13/09:00am W 2-3 kts 18.4°c n/a 70% 0.0mm
13/08:30am W 2-3 kts 17.0°c n/a 77% 0.0mm
13/08:00am CALM 0 kts 16.1°c n/a 81% 0.0mm
13/07:30am W 2-3 kts 14.5°c n/a 81% 0.0mm
13/07:00am SW 1-2 kts 14.4°c n/a 81% 0.0mm
13/06:30am WSW 3-5 kts 14.9°c n/a 80% 0.0mm
13/06:00am WNW 4-5 kts 15.1°c n/a 80% 0.0mm
13/05:30am W 4-6 kts 15.2°c n/a 79% 0.0mm
13/05:00am WNW 5-6 kts 15.6°c n/a 78% 0.0mm
13/04:30am NNW 2-3 kts 15.9°c n/a 76% 0.0mm
13/04:00am WSW 5-8 kts 16.9°c n/a 76% 0.0mm
13/03:30am WSW 6-11 kts 16.5°c n/a 76% 0.0mm
13/03:00am SW 10-13 kts 17.0°c n/a 77% 0.0mm
13/02:30am SSW 10-13 kts 17.1°c n/a 79% 0.0mm
13/02:00am SW 8-13 kts 16.6°c n/a 82% 0.0mm
13/01:30am W 1-3 kts 15.2°c n/a 83% 0.0mm
13/01:00am W 3-4 kts 15.3°c n/a 83% 0.0mm
13/12:30am SW 4-5 kts 15.5°c n/a 83% 0.0mm
13/12:00am SSW 2-3 kts 16.3°c n/a 82% 0.0mm
Time Wind Speed Temp Pressure Rel. Hum Rain
12/11:30pm W 3-5 kts 15.8°c n/a 81% 0.0mm
12/11:00pm W 4-6 kts 16.5°c n/a 81% 0.0mm
12/10:30pm WSW 6-8 kts 16.6°c n/a 81% 0.0mm
12/10:00pm WSW 3-5 kts 16.4°c n/a 80% 0.0mm
12/09:30pm SW 3-5 kts 17.2°c n/a 80% 0.0mm
12/09:00pm SSW 9-11 kts 18.0°c n/a 79% 0.0mm
12/08:30pm SW 7-10 kts 17.9°c n/a 79% 0.0mm
12/08:00pm SSW 11-12 kts 17.9°c n/a 79% 0.0mm
12/07:30pm SSW 14-17 kts 17.9°c n/a 78% 0.0mm
12/07:00pm SSW 14-18 kts 17.9°c n/a 78% 0.0mm
12/06:30pm SW 11-14 kts 17.8°c n/a 75% 0.0mm
12/06:00pm SW 9-13 kts 17.8°c n/a 74% 0.0mm
12/05:30pm SSW 9-12 kts 17.8°c n/a 76% 0.0mm
12/05:00pm SSW 12-15 kts 18.0°c n/a 75% 0.0mm
12/04:30pm SSW 12-16 kts 18.6°c n/a 73% 0.0mm
12/04:00pm S 12-15 kts 18.7°c n/a 71% 0.0mm
12/03:30pm S 10-14 kts 19.1°c n/a 72% 0.0mm
12/03:00pm SSW 11-15 kts 19.1°c n/a 71% 0.0mm
12/02:30pm S 11-15 kts 18.9°c n/a 72% 0.0mm
12/02:00pm S 11-15 kts 19.1°c n/a 70% 0.0mm
12/01:30pm S 12-15 kts 18.7°c n/a 71% 0.0mm
12/01:00pm S 13-17 kts 18.8°c n/a 68% 0.0mm
12/12:30pm S 12-15 kts 18.4°c n/a 69% 0.0mm
12/12:00pm SSW 12-15 kts 18.8°c n/a 67% 0.0mm
12/11:30am S 10-13 kts 18.4°c n/a 69% 0.0mm
12/11:00am SSW 10-14 kts 18.1°c n/a 67% 0.0mm
12/10:30am SSW 12-16 kts 18.1°c n/a 67% 0.0mm
12/10:00am SSW 11-16 kts 17.4°c n/a 67% 0.0mm
12/09:30am SSW 8-14 kts 17.5°c n/a 67% 0.0mm
12/09:00am SW 5-6 kts 17.2°c n/a 68% 3.8mm
12/08:30am SW 6-10 kts 16.6°c n/a 70% 3.8mm
12/08:00am SSW 3 kts 15.8°c n/a 77% 3.8mm
12/07:30am WSW 3-4 kts 14.0°c n/a 81% 3.8mm
12/07:00am W 4-6 kts 13.1°c n/a 81% 3.8mm
12/06:30am S 2-4 kts 13.6°c n/a 81% 3.8mm
12/06:00am CALM 0 kts 13.0°c n/a 80% 3.8mm
12/05:30am WSW 3-4 kts 13.2°c n/a 78% 3.8mm
12/05:00am WSW 2 kts 13.7°c n/a 77% 3.8mm
12/04:30am SW 2-3 kts 14.5°c n/a 76% 3.8mm
12/04:00am SW 4-7 kts 14.9°c n/a 75% 3.8mm
12/03:30am SW 3-5 kts 14.7°c n/a 76% 3.8mm
12/03:00am WSW 6-9 kts 14.9°c n/a 74% 3.8mm
12/02:30am SW 7-10 kts 15.8°c n/a 74% 3.8mm
12/02:00am SW 9-12 kts 15.7°c n/a 75% 3.8mm
12/01:30am SW 6-9 kts 15.2°c n/a 76% 3.8mm
12/01:00am SW 5-7 kts 15.2°c n/a 76% 3.8mm
12/12:30am SW 5-6 kts 15.1°c n/a 76% 3.8mm
12/12:00am SW 7-10 kts 15.4°c n/a 76% 3.8mm